Time,TemperatureF,DewpointF,PressureIn,WindDirection,WindDirectionDegrees,WindSpeedMPH,WindSpeedGustMPH,Humidity,HourlyPrecipIn,Conditions,Clouds,dailyrainin,SolarRadiationWatts/m^2,SoftwareType,DateUTC
2013-07-04 00:02:00,72.0,71.0,-100.00,East,100,0.0,4.0,96,0.01,,,2.15,0.000000,,2013-07-04 04:02:00,
2013-07-04 00:11:00,72.0,71.0,-100.00,ENE,74,1.0,7.0,96,0.10,,,2.25,0.000000,,2013-07-04 04:11:00,
2013-07-04 00:52:00,72.0,71.0,-100.00,ENE,74,1.0,7.0,96,0.10,,,2.25,0.000000,,2013-07-04 04:52:00,
2013-07-04 01:02:00,72.0,71.0,-100.00,ENE,74,1.0,7.0,96,0.10,,,2.25,0.000000,,2013-07-04 05:02:00,
2013-07-04 01:11:00,72.0,71.0,-100.00,ENE,61,2.0,6.0,96,0.01,,,2.26,0.000000,,2013-07-04 05:11:00,
2013-07-04 01:43:00,72.0,71.0,-100.00,ENE,61,2.0,6.0,96,0.01,,,2.26,0.000000,,2013-07-04 05:43:00,
2013-07-04 01:52:00,72.0,71.0,-100.00,ENE,61,2.0,6.0,96,0.01,,,2.26,0.000000,,2013-07-04 05:52:00,
2013-07-04 02:01:00,72.0,71.0,-100.00,ENE,61,2.0,6.0,96,0.01,,,2.26,0.000000,,2013-07-04 06:01:00,
2013-07-04 02:11:00,72.0,71.0,-100.00,NNE,31,1.0,5.0,96,0.00,,,2.25,0.000000,,2013-07-04 06:11:00,
2013-07-04 02:34:00,72.0,71.0,-100.00,NNE,31,1.0,5.0,96,0.00,,,2.25,0.000000,,2013-07-04 06:34:00,
2013-07-04 02:43:00,72.0,71.0,-100.00,NNE,31,1.0,5.0,96,0.00,,,2.25,0.000000,,2013-07-04 06:43:00,
2013-07-04 02:53:00,72.0,71.0,-100.00,NNE,31,1.0,5.0,96,0.00,,,2.25,0.000000,,2013-07-04 06:53:00,
2013-07-04 03:02:00,72.0,71.0,-100.00,NNE,31,1.0,5.0,96,0.00,,,2.25,0.000000,,2013-07-04 07:02:00,
2013-07-04 03:11:00,71.0,70.0,-100.00,NE,45,1.0,3.0,96,0.00,,,2.25,0.000000,,2013-07-04 07:11:00,
2013-07-04 03:43:00,71.0,70.0,-100.00,NE,45,1.0,3.0,96,0.00,,,2.25,0.000000,,2013-07-04 07:43:00,
2013-07-04 03:52:00,71.0,70.0,-100.00,NE,45,1.0,3.0,96,0.00,,,2.25,0.000000,,2013-07-04 07:52:00,
2013-07-04 04:02:00,71.0,70.0,-100.00,NE,45,1.0,3.0,96,0.00,,,2.25,0.000000,,2013-07-04 08:02:00,
2013-07-04 04:11:00,71.0,70.0,-100.00,NE,47,0.0,3.0,96,0.00,,,2.25,0.000000,,2013-07-04 08:11:00,
2013-07-04 04:43:00,71.0,70.0,-100.00,NE,47,0.0,3.0,96,0.00,,,2.25,0.000000,,2013-07-04 08:43:00,
2013-07-04 04:53:00,71.0,70.0,-100.00,NE,47,0.0,3.0,96,0.00,,,2.25,0.000000,,2013-07-04 08:53:00,
2013-07-04 05:02:00,71.0,70.0,-100.00,NE,47,0.0,3.0,96,0.00,,,2.25,0.000000,,2013-07-04 09:02:00,
2013-07-04 06:11:00,70.0,69.0,-100.00,NNE,32,0.0,2.0,96,-99.99,,,-99.99,0.000000,,2013-07-04 10:11:00,
2013-07-04 06:43:00,70.0,69.0,-100.00,NNE,32,0.0,2.0,96,-99.99,,,-99.99,0.000000,,2013-07-04 10:43:00,
2013-07-04 06:53:00,70.0,69.0,-100.00,NNE,32,0.0,2.0,96,-99.99,,,-99.99,0.000000,,2013-07-04 10:53:00,
2013-07-04 07:02:00,70.0,69.0,-100.00,NNE,32,0.0,2.0,96,-99.99,,,-99.99,0.000000,,2013-07-04 11:02:00,
2013-07-04 07:11:00,71.0,70.0,-100.00,NE,41,0.0,2.0,96,0.00,,,2.25,5.000000,,2013-07-04 11:11:00,
2013-07-04 07:43:00,71.0,70.0,-100.00,NE,41,0.0,2.0,96,0.00,,,2.25,5.000000,,2013-07-04 11:43:00,
2013-07-04 07:53:00,71.0,70.0,-100.00,NE,41,0.0,2.0,96,0.00,,,2.25,5.000000,,2013-07-04 11:53:00,
2013-07-04 08:02:00,71.0,70.0,-100.00,NE,41,0.0,2.0,96,0.00,,,2.25,5.000000,,2013-07-04 12:02:00,
2013-07-04 08:11:00,74.0,73.0,-100.00,ENE,73,2.0,4.0,96,0.00,,,2.25,66.000000,,2013-07-04 12:11:00,
2013-07-04 08:43:00,74.0,73.0,-100.00,ENE,73,2.0,4.0,96,0.00,,,2.25,66.000000,,2013-07-04 12:43:00,
2013-07-04 08:52:00,74.0,73.0,-100.00,ENE,73,2.0,4.0,96,0.00,,,2.25,66.000000,,2013-07-04 12:52:00,
2013-07-04 09:02:00,74.0,73.0,-100.00,ENE,73,2.0,4.0,96,0.00,,,2.25,66.000000,,2013-07-04 13:02:00,
2013-07-04 09:11:00,81.0,76.0,-100.00,East,81,3.0,7.0,85,0.00,,,2.25,176.000000,,2013-07-04 13:11:00,
2013-07-04 09:43:00,81.0,76.0,-100.00,East,81,3.0,7.0,85,0.00,,,2.25,176.000000,,2013-07-04 13:43:00,
2013-07-04 09:53:00,81.0,76.0,-100.00,East,81,3.0,7.0,85,0.00,,,2.25,176.000000,,2013-07-04 13:53:00,
2013-07-04 10:02:00,81.0,76.0,-100.00,East,81,3.0,7.0,85,0.00,,,2.25,176.000000,,2013-07-04 14:02:00,
2013-07-04 10:11:00,85.0,77.0,-100.00,East,96,4.0,12.0,76,0.00,,,2.25,436.000000,,2013-07-04 14:11:00,
2013-07-04 10:43:00,85.0,77.0,-100.00,East,96,4.0,12.0,76,0.00,,,2.25,436.000000,,2013-07-04 14:43:00,
2013-07-04 10:53:00,85.0,77.0,-100.00,East,96,4.0,12.0,76,0.00,,,2.25,436.000000,,2013-07-04 14:53:00,
2013-07-04 11:02:00,85.0,77.0,-100.00,East,96,4.0,12.0,76,0.00,,,2.25,436.000000,,2013-07-04 15:02:00,
2013-07-04 11:11:00,88.0,75.0,-100.00,East,96,5.0,13.0,65,0.00,,,2.25,534.000000,,2013-07-04 15:11:00,
2013-07-04 11:43:00,88.0,75.0,-100.00,East,96,5.0,13.0,65,0.00,,,2.25,534.000000,,2013-07-04 15:43:00,
2013-07-04 11:53:00,88.0,75.0,-100.00,East,96,5.0,13.0,65,0.00,,,2.25,534.000000,,2013-07-04 15:53:00,
2013-07-04 12:02:00,88.0,75.0,-100.00,East,96,5.0,13.0,65,0.00,,,2.25,534.000000,,2013-07-04 16:02:00,
2013-07-04 12:11:00,88.0,75.0,-100.00,ESE,120,5.0,12.0,65,0.00,,,2.25,581.000000,,2013-07-04 16:11:00,
2013-07-04 12:43:00,88.0,75.0,-100.00,ESE,120,5.0,12.0,65,0.00,,,2.25,581.000000,,2013-07-04 16:43:00,
2013-07-04 12:52:00,88.0,75.0,-100.00,ESE,120,5.0,12.0,65,0.00,,,2.25,581.000000,,2013-07-04 16:52:00,
2013-07-04 13:02:00,88.0,75.0,-100.00,ESE,120,5.0,12.0,65,0.00,,,2.25,581.000000,,2013-07-04 17:02:00,
2013-07-04 13:11:00,90.0,73.0,-100.00,ESE,105,5.0,13.0,57,0.00,,,2.25,708.000000,,2013-07-04 17:11:00,
2013-07-04 13:43:00,90.0,73.0,-100.00,ESE,105,5.0,13.0,57,0.00,,,2.25,708.000000,,2013-07-04 17:43:00,
2013-07-04 13:53:00,90.0,73.0,-100.00,ESE,105,5.0,13.0,57,0.00,,,2.25,708.000000,,2013-07-04 17:53:00,
2013-07-04 14:01:00,90.0,73.0,-100.00,ESE,105,5.0,13.0,57,0.00,,,2.25,708.000000,,2013-07-04 18:01:00,
2013-07-04 14:11:00,91.0,73.0,-100.00,East,94,5.0,12.0,55,0.00,,,1.52,793.000000,,2013-07-04 18:11:00,
2013-07-04 14:43:00,91.0,73.0,-100.00,East,94,5.0,12.0,55,0.00,,,1.52,793.000000,,2013-07-04 18:43:00,
2013-07-04 14:52:00,91.0,73.0,-100.00,East,94,5.0,12.0,55,0.00,,,1.52,793.000000,,2013-07-04 18:52:00,
2013-07-04 15:02:00,91.0,73.0,-100.00,East,94,5.0,12.0,55,0.00,,,1.52,793.000000,,2013-07-04 19:02:00,
2013-07-04 15:11:00,92.0,70.0,-100.00,East,86,5.0,15.0,49,0.00,,,0.84,725.000000,,2013-07-04 19:11:00,
2013-07-04 15:43:00,92.0,70.0,-100.00,East,86,5.0,15.0,49,0.00,,,0.84,725.000000,,2013-07-04 19:43:00,
2013-07-04 15:53:00,92.0,70.0,-100.00,East,86,5.0,15.0,49,0.00,,,0.84,725.000000,,2013-07-04 19:53:00,
2013-07-04 16:02:00,92.0,70.0,-100.00,East,86,5.0,15.0,49,0.00,,,0.84,725.000000,,2013-07-04 20:02:00,
2013-07-04 16:11:00,84.0,76.0,-100.00,South,171,2.0,10.0,77,0.01,,,0.65,280.000000,,2013-07-04 20:11:00,
2013-07-04 16:42:00,84.0,76.0,-100.00,South,171,2.0,10.0,77,0.01,,,0.65,280.000000,,2013-07-04 20:42:00,
2013-07-04 16:53:00,84.0,76.0,-100.00,South,171,2.0,10.0,77,0.01,,,0.65,280.000000,,2013-07-04 20:53:00,
2013-07-04 17:01:00,84.0,76.0,-100.00,South,171,2.0,10.0,77,0.01,,,0.65,280.000000,,2013-07-04 21:01:00,
2013-07-04 17:11:00,86.0,72.0,-100.00,East,82,2.0,7.0,64,0.00,,,0.65,241.000000,,2013-07-04 21:11:00,
2013-07-04 17:43:00,86.0,72.0,-100.00,East,82,2.0,7.0,64,0.00,,,0.65,241.000000,,2013-07-04 21:43:00,
2013-07-04 17:53:00,86.0,72.0,-100.00,East,82,2.0,7.0,64,0.00,,,0.65,241.000000,,2013-07-04 21:53:00,
2013-07-04 18:02:00,86.0,72.0,-100.00,East,82,2.0,7.0,64,0.00,,,0.65,241.000000,,2013-07-04 22:02:00,
2013-07-04 18:11:00,85.0,72.0,-100.00,East,82,3.0,6.0,66,0.00,,,0.65,129.000000,,2013-07-04 22:11:00,
2013-07-04 18:43:00,85.0,72.0,-100.00,East,82,3.0,6.0,66,0.00,,,0.65,129.000000,,2013-07-04 22:43:00,
2013-07-04 18:52:00,85.0,72.0,-100.00,East,82,3.0,6.0,66,0.00,,,0.65,129.000000,,2013-07-04 22:52:00,
2013-07-04 19:01:00,85.0,72.0,-100.00,East,82,3.0,6.0,66,0.00,,,0.65,129.000000,,2013-07-04 23:01:00,
2013-07-04 19:11:00,80.0,74.0,-100.00,NNE,25,0.0,5.0,83,0.00,,,0.60,66.000000,,2013-07-04 23:11:00,
2013-07-04 19:33:00,80.0,74.0,-100.00,NNE,25,0.0,5.0,83,0.00,,,0.60,66.000000,,2013-07-04 23:33:00,
2013-07-04 19:43:00,80.0,74.0,-100.00,NNE,25,0.0,5.0,83,0.00,,,0.60,66.000000,,2013-07-04 23:43:00,
2013-07-04 19:52:00,80.0,74.0,-100.00,NNE,25,0.0,5.0,83,0.00,,,0.60,66.000000,,2013-07-04 23:52:00,
2013-07-04 20:01:00,80.0,74.0,-100.00,NNE,25,0.0,5.0,83,0.00,,,0.60,66.000000,,2013-07-05 00:01:00,
2013-07-04 21:11:00,75.0,73.0,-100.00,NE,35,0.0,0.0,93,-99.99,,,0.55,0.000000,,2013-07-05 01:11:00,
2013-07-04 21:32:00,75.0,73.0,-100.00,NE,35,0.0,0.0,93,-99.99,,,0.55,0.000000,,2013-07-05 01:32:00,
2013-07-04 21:42:00,75.0,73.0,-100.00,NE,35,0.0,0.0,93,-99.99,,,0.55,0.000000,,2013-07-05 01:42:00,
2013-07-04 21:52:00,75.0,73.0,-100.00,NE,35,0.0,0.0,93,-99.99,,,0.55,0.000000,,2013-07-05 01:52:00,
2013-07-04 22:02:00,75.0,73.0,-100.00,NE,35,0.0,0.0,93,-99.99,,,0.55,0.000000,,2013-07-05 02:02:00,
2013-07-04 22:11:00,75.0,73.0,-100.00,East,81,0.0,2.0,95,0.00,,,0.13,0.000000,,2013-07-05 02:11:00,
2013-07-04 22:43:00,75.0,73.0,-100.00,East,81,0.0,2.0,95,0.00,,,0.13,0.000000,,2013-07-05 02:43:00,
2013-07-04 22:53:00,75.0,73.0,-100.00,East,81,0.0,2.0,95,0.00,,,0.13,0.000000,,2013-07-05 02:53:00,
2013-07-04 23:02:00,75.0,73.0,-100.00,East,81,0.0,2.0,95,0.00,,,0.13,0.000000,,2013-07-05 03:02:00,
2013-07-04 23:11:00,75.0,73.0,-100.00,ENE,72,0.0,2.0,95,0.00,,,0.12,0.000000,,2013-07-05 03:11:00,
2013-07-04 23:33:00,75.0,73.0,-100.00,ENE,72,0.0,2.0,95,0.00,,,0.12,0.000000,,2013-07-05 03:33:00,
2013-07-04 23:42:00,75.0,73.0,-100.00,ENE,72,0.0,2.0,95,0.00,,,0.12,0.000000,,2013-07-05 03:42:00,
2013-07-04 23:52:00,75.0,73.0,-100.00,ENE,72,0.0,2.0,95,0.00,,,0.12,0.000000,,2013-07-05 03:52:00,